JST448 YMML-YBCG

Flight info

Callsign JST448
Flight time 1h 42m
Altitude 35000
Route NONIX H66 URKER Y54 BERNI
Aircraft A321/M-SDE3FGHIRWY/LB1

Departure

Time 2026-05-08 00:42
Airport Melbourne Airport (YMML)

Arrival

Time 2026-05-08 02:24
Airport Gold Coast Airport (YBCG)
Time Latitude Longitude Altitude Speed Heading
2026-05-08 00:04 -37.67516 144.84836 380 ft 0 kts 171°
2026-05-08 00:22 -37.67508 144.84834 353 ft 4 kts 172°
2026-05-08 00:23 -37.67481 144.84829 381 ft 4 kts 172°
2026-05-08 00:23 -37.67455 144.84825 381 ft 4 kts 173°
2026-05-08 00:23 -37.67428 144.84821 382 ft 4 kts 174°
2026-05-08 00:23 -37.67424 144.84819 382 ft 4 kts 187°
2026-05-08 00:24 -37.67429 144.84796 382 ft 4 kts 260°
2026-05-08 00:24 -37.67432 144.84762 382 ft 4 kts 263°
2026-05-08 00:24 -37.67436 144.84731 382 ft 4 kts 261°
2026-05-08 00:24 -37.67440 144.84697 381 ft 4 kts 261°
2026-05-08 00:25 -37.67444 144.84663 381 ft 4 kts 261°
2026-05-08 00:25 -37.67446 144.84642 381 ft 0 kts 261°
2026-05-08 00:28 -37.67447 144.84637 381 ft 2 kts 261°
2026-05-08 00:29 -37.67451 144.84605 380 ft 6 kts 261°
2026-05-08 00:29 -37.67458 144.84540 379 ft 9 kts 261°
2026-05-08 00:29 -37.67469 144.84448 378 ft 12 kts 261°
2026-05-08 00:29 -37.67477 144.84352 376 ft 9 kts 282°
2026-05-08 00:30 -37.67422 144.84311 377 ft 10 kts 350°
2026-05-08 00:30 -37.67357 144.84298 379 ft 10 kts 352°
2026-05-08 00:30 -37.67290 144.84286 380 ft 10 kts 352°
2026-05-08 00:30 -37.67222 144.84273 381 ft 10 kts 352°
2026-05-08 00:31 -37.67151 144.84260 383 ft 11 kts 351°
2026-05-08 00:31 -37.67067 144.84244 385 ft 12 kts 351°
2026-05-08 00:31 -37.66983 144.84228 386 ft 12 kts 352°
2026-05-08 00:31 -37.66900 144.84213 388 ft 12 kts 351°
2026-05-08 00:32 -37.66821 144.84196 391 ft 11 kts 351°
2026-05-08 00:32 -37.66758 144.84182 394 ft 8 kts 350°
2026-05-08 00:32 -37.66710 144.84201 393 ft 8 kts 38°
2026-05-08 00:32 -37.66692 144.84280 397 ft 11 kts 81°
2026-05-08 00:33 -37.66680 144.84382 397 ft 12 kts 81°
2026-05-08 00:33 -37.66667 144.84492 399 ft 13 kts 82°
2026-05-08 00:33 -37.66654 144.84607 400 ft 14 kts 82°
2026-05-08 00:33 -37.66640 144.84724 402 ft 14 kts 81°
2026-05-08 00:34 -37.66582 144.84805 402 ft 12 kts 22°
2026-05-08 00:34 -37.66543 144.84887 406 ft 12 kts 83°
2026-05-08 00:34 -37.66532 144.84992 402 ft 11 kts 82°
2026-05-08 00:34 -37.66481 144.85039 405 ft 9 kts 347°
2026-05-08 00:35 -37.66433 144.84995 409 ft 8 kts 321°
2026-05-08 00:35 -37.66411 144.84973 408 ft 0 kts 321°
2026-05-08 00:37 -37.66410 144.84972 408 ft 1 kts 321°
2026-05-08 00:38 -37.66367 144.84929 409 ft 4 kts 322°
2026-05-08 00:38 -37.66365 144.84927 409 ft 0 kts 322°
2026-05-08 00:39 -37.66357 144.84919 407 ft 4 kts 322°
2026-05-08 00:39 -37.66320 144.84883 412 ft 9 kts 322°
2026-05-08 00:39 -37.66284 144.84847 409 ft 10 kts 322°
2026-05-08 00:39 -37.66232 144.84794 413 ft 7 kts 309°
2026-05-08 00:40 -37.66224 144.84755 413 ft 0 kts 275°
2026-05-08 00:41 -37.66224 144.84754 413 ft 1 kts 275°
2026-05-08 00:41 -37.66222 144.84720 413 ft 15 kts 275°
2026-05-08 00:41 -37.66193 144.84226 411 ft 95 kts 274°
2026-05-08 00:41 -37.66128 144.83134 418 ft 154 kts 273°
2026-05-08 00:42 -37.66030 144.81785 1152 ft 149 kts 271°
2026-05-08 00:42 -37.65948 144.80476 1948 ft 151 kts 267°
2026-05-08 00:42 -37.65872 144.79060 2405 ft 172 kts 266°
2026-05-08 00:42 -37.65794 144.77473 2757 ft 194 kts 266°
2026-05-08 00:43 -37.65704 144.75710 3354 ft 205 kts 267°
2026-05-08 00:43 -37.65603 144.73877 4079 ft 217 kts 268°
2026-05-08 00:43 -37.65496 144.71892 4542 ft 238 kts 267°
2026-05-08 00:43 -37.65374 144.69756 5311 ft 247 kts 268°
2026-05-08 00:44 -37.65199 144.67574 6136 ft 255 kts 276°
2026-05-08 00:44 -37.64320 144.65567 6854 ft 280 kts 310°
2026-05-08 00:44 -37.62591 144.64240 7569 ft 298 kts 332°
2026-05-08 00:44 -37.60625 144.63368 8270 ft 307 kts 339°
2026-05-08 00:45 -37.58529 144.62687 8977 ft 316 kts 346°
2026-05-08 00:45 -37.56285 144.62702 9675 ft 326 kts
2026-05-08 00:45 -37.54102 144.63565 10359 ft 332 kts 27°
2026-05-08 00:45 -37.52138 144.65130 10639 ft 348 kts 45°
2026-05-08 00:46 -37.50493 144.67473 10794 ft 366 kts 57°
2026-05-08 00:46 -37.48919 144.70059 11227 ft 375 kts 57°
2026-05-08 00:46 -37.47297 144.72674 11866 ft 381 kts 51°
2026-05-08 00:46 -37.45467 144.75135 12503 ft 385 kts 49°
2026-05-08 00:47 -37.43628 144.77567 13165 ft 389 kts 49°
2026-05-08 00:47 -37.41736 144.80060 13803 ft 394 kts 49°
2026-05-08 00:47 -37.39853 144.82538 14396 ft 398 kts 49°
2026-05-08 00:47 -37.37923 144.85076 14974 ft 401 kts 49°
2026-05-08 00:48 -37.35985 144.87622 15562 ft 404 kts 49°
2026-05-08 00:48 -37.34052 144.90162 16157 ft 406 kts 48°
2026-05-08 00:48 -37.32082 144.92746 16741 ft 409 kts 48°
2026-05-08 00:48 -37.30101 144.95345 17301 ft 413 kts 48°
2026-05-08 00:49 -37.28105 144.97963 17856 ft 416 kts 48°
2026-05-08 00:49 -37.26118 145.00565 18391 ft 419 kts 48°
2026-05-08 00:49 -37.24085 145.03224 18857 ft 424 kts 48°
2026-05-08 00:49 -37.22027 145.05920 19329 ft 427 kts 48°
2026-05-08 00:50 -37.19957 145.08628 19794 ft 430 kts 48°
2026-05-08 00:50 -37.17899 145.11313 20256 ft 433 kts 48°
2026-05-08 00:50 -37.15804 145.14045 20716 ft 436 kts 48°
2026-05-08 00:50 -37.13688 145.16804 21161 ft 439 kts 47°
2026-05-08 00:51 -37.11561 145.19577 21609 ft 441 kts 47°
2026-05-08 00:51 -37.09422 145.22360 22052 ft 444 kts 47°
2026-05-08 00:51 -37.07251 145.25081 22475 ft 448 kts 43°
2026-05-08 00:51 -37.04847 145.27602 22915 ft 451 kts 40°
2026-05-08 00:52 -37.02417 145.30116 23304 ft 455 kts 40°
2026-05-08 00:52 -36.99964 145.32648 23740 ft 458 kts 40°
2026-05-08 00:52 -36.97496 145.35190 24105 ft 460 kts 40°
2026-05-08 00:52 -36.95046 145.37711 24475 ft 463 kts 40°
2026-05-08 00:53 -36.92543 145.40287 24837 ft 465 kts 40°
2026-05-08 00:53 -36.90036 145.42867 25230 ft 467 kts 40°
2026-05-08 00:53 -36.87519 145.45459 25601 ft 469 kts 40°
2026-05-08 00:53 -36.85014 145.48037 25957 ft 471 kts 40°
2026-05-08 00:54 -36.82467 145.50652 26314 ft 474 kts 40°
2026-05-08 00:54 -36.79902 145.53284 26676 ft 476 kts 40°
2026-05-08 00:54 -36.77359 145.55898 26964 ft 480 kts 40°
2026-05-08 00:54 -36.74770 145.58559 27308 ft 482 kts 40°
2026-05-08 00:55 -36.72188 145.61210 27641 ft 485 kts 40°
2026-05-08 00:55 -36.69580 145.63883 27979 ft 487 kts 40°
2026-05-08 00:55 -36.66945 145.66581 28317 ft 489 kts 40°
2026-05-08 00:55 -36.64303 145.69280 28637 ft 492 kts 40°
2026-05-08 00:56 -36.61674 145.71959 28960 ft 494 kts 40°
2026-05-08 00:56 -36.58995 145.74684 29278 ft 496 kts 40°
2026-05-08 00:56 -36.56306 145.77419 29598 ft 499 kts 41°
2026-05-08 00:56 -36.53603 145.80169 29907 ft 502 kts 40°
2026-05-08 00:57 -36.50922 145.82893 30170 ft 505 kts 40°
2026-05-08 00:57 -36.48184 145.85672 30435 ft 507 kts 40°
2026-05-08 00:57 -36.45440 145.88453 30673 ft 509 kts 40°
2026-05-08 00:57 -36.42716 145.91207 30909 ft 510 kts 40°
2026-05-08 00:58 -36.39949 145.94007 31142 ft 512 kts 40°
2026-05-08 00:58 -36.37185 145.96809 31452 ft 511 kts 40°
2026-05-08 00:58 -36.34457 145.99572 31775 ft 510 kts 40°
2026-05-08 00:58 -36.31709 146.02349 32080 ft 509 kts 40°
2026-05-08 00:59 -36.28988 146.05095 32464 ft 507 kts 40°
2026-05-08 00:59 -36.26244 146.07859 32762 ft 507 kts 40°
2026-05-08 00:59 -36.23492 146.10626 33061 ft 507 kts 40°
2026-05-08 00:59 -36.20750 146.13382 33373 ft 506 kts 40°
2026-05-08 01:00 -36.18038 146.16105 33674 ft 505 kts 40°
2026-05-08 01:00 -36.15306 146.18849 34014 ft 503 kts 40°
2026-05-08 01:00 -36.12614 146.21553 34360 ft 501 kts 40°
2026-05-08 01:00 -36.09905 146.24275 34653 ft 499 kts 40°
2026-05-08 01:01 -36.07208 146.26979 34949 ft 498 kts 39°
2026-05-08 01:01 -36.04507 146.29681 35147 ft 498 kts 39°
2026-05-08 01:01 -36.01846 146.32342 35265 ft 500 kts 40°
2026-05-08 01:02 -35.96446 146.37739 35254 ft 498 kts 39°
2026-05-08 01:02 -35.91035 146.43119 35253 ft 498 kts 39°
2026-05-08 01:03 -35.85652 146.48463 35250 ft 498 kts 39°
2026-05-08 01:03 -35.80295 146.53784 35251 ft 496 kts 39°
2026-05-08 01:04 -35.74922 146.59115 35259 ft 497 kts 39°
2026-05-08 01:04 -35.69526 146.64461 35267 ft 497 kts 39°
2026-05-08 01:05 -35.64144 146.69766 35271 ft 497 kts 39°
2026-05-08 01:05 -35.58730 146.75112 35271 ft 497 kts 39°
2026-05-08 01:06 -35.53358 146.80407 35269 ft 497 kts 39°
2026-05-08 01:06 -35.47976 146.85686 35284 ft 497 kts 39°
2026-05-08 01:07 -35.42556 146.90989 35280 ft 497 kts 39°
2026-05-08 01:07 -35.37176 146.96258 35277 ft 497 kts 39°
2026-05-08 01:08 -35.31772 147.01532 35279 ft 497 kts 39°
2026-05-08 01:08 -35.26341 147.06833 35280 ft 496 kts 39°
2026-05-08 01:09 -35.20958 147.12077 35308 ft 496 kts 38°
2026-05-08 01:09 -35.15548 147.17335 35287 ft 496 kts 38°
2026-05-08 01:10 -35.10156 147.22561 35280 ft 496 kts 38°
2026-05-08 01:10 -35.04736 147.27811 35280 ft 496 kts 38°
2026-05-08 01:11 -34.99350 147.33028 35277 ft 495 kts 38°
2026-05-08 01:11 -34.93960 147.38232 35305 ft 495 kts 38°
2026-05-08 01:12 -34.88533 147.43452 35297 ft 495 kts 38°
2026-05-08 01:12 -34.83147 147.48631 35278 ft 495 kts 38°
2026-05-08 01:13 -34.77756 147.53809 35280 ft 494 kts 38°
2026-05-08 01:13 -34.72340 147.59008 35289 ft 494 kts 38°
2026-05-08 01:14 -34.66947 147.64171 35277 ft 494 kts 37°
2026-05-08 01:14 -34.61560 147.69311 35302 ft 494 kts 37°
2026-05-08 01:15 -34.56146 147.74469 35291 ft 494 kts 37°
2026-05-08 01:15 -34.50711 147.79637 35278 ft 494 kts 37°
2026-05-08 01:16 -34.45304 147.84770 35288 ft 494 kts 37°
2026-05-08 01:16 -34.39910 147.89893 35293 ft 494 kts 37°
2026-05-08 01:17 -34.34513 147.95005 35271 ft 494 kts 37°
2026-05-08 01:17 -34.29081 148.00136 35285 ft 493 kts 36°
2026-05-08 01:18 -34.23684 148.05235 35286 ft 494 kts 36°
2026-05-08 01:18 -34.18246 148.10362 35291 ft 494 kts 36°
2026-05-08 01:19 -34.12834 148.15449 35285 ft 494 kts 36°
2026-05-08 01:19 -34.07433 148.20519 35319 ft 494 kts 36°
2026-05-08 01:20 -34.01985 148.25628 35308 ft 495 kts 36°
2026-05-08 01:20 -33.96558 148.30712 35303 ft 496 kts 36°
2026-05-08 01:21 -33.91089 148.35834 35298 ft 496 kts 36°
2026-05-08 01:21 -33.85648 148.40913 35300 ft 496 kts 36°
2026-05-08 01:22 -33.80201 148.45985 35292 ft 496 kts 35°
2026-05-08 01:22 -33.74722 148.51076 35323 ft 497 kts 35°
2026-05-08 01:23 -33.69267 148.56138 35313 ft 498 kts 35°
2026-05-08 01:23 -33.63758 148.61249 35291 ft 498 kts 34°
2026-05-08 01:24 -33.58285 148.66304 35305 ft 498 kts 34°
2026-05-08 01:24 -33.52811 148.71355 35310 ft 498 kts 34°
2026-05-08 01:25 -33.47311 148.76428 35308 ft 498 kts 34°
2026-05-08 01:25 -33.41842 148.81480 35309 ft 498 kts 34°
2026-05-08 01:26 -33.36336 148.86548 35307 ft 498 kts 34°
2026-05-08 01:26 -33.30850 148.91570 35310 ft 498 kts 34°
2026-05-08 01:27 -33.25362 148.96574 35295 ft 498 kts 34°
2026-05-08 01:27 -33.19828 149.01635 35296 ft 499 kts 34°
2026-05-08 01:28 -33.15263 149.05814 35314 ft 499 kts 34°
2026-05-08 01:28 -33.09723 149.10875 35288 ft 500 kts 33°
2026-05-08 01:29 -33.04198 149.15905 35291 ft 500 kts 33°
2026-05-08 01:29 -32.98678 149.20918 35295 ft 501 kts 33°
2026-05-08 01:30 -32.93122 149.25956 35296 ft 501 kts 33°
2026-05-08 01:30 -32.87592 149.30967 35291 ft 500 kts 33°
2026-05-08 01:31 -32.82073 149.35964 35301 ft 500 kts 33°
2026-05-08 01:31 -32.76509 149.40991 35291 ft 500 kts 33°
2026-05-08 01:32 -32.70987 149.45977 35282 ft 499 kts 33°
2026-05-08 01:32 -32.65476 149.50940 35286 ft 499 kts 33°
2026-05-08 01:33 -32.59934 149.55915 35289 ft 498 kts 32°
2026-05-08 01:33 -32.54401 149.60853 35282 ft 498 kts 31°
2026-05-08 01:34 -32.48770 149.65649 35286 ft 496 kts 30°
2026-05-08 01:34 -32.43123 149.70324 35290 ft 496 kts 30°
2026-05-08 01:35 -32.37493 149.75006 35283 ft 496 kts 30°
2026-05-08 01:35 -32.31867 149.79739 35269 ft 495 kts 30°
2026-05-08 01:36 -32.26267 149.84453 35270 ft 494 kts 30°
2026-05-08 01:36 -32.20668 149.89141 35297 ft 494 kts 30°
2026-05-08 01:37 -32.15080 149.93800 35289 ft 493 kts 30°
2026-05-08 01:37 -32.09448 149.98494 35274 ft 493 kts 30°
2026-05-08 01:38 -32.03854 150.03147 35279 ft 493 kts 30°
2026-05-08 01:38 -31.98266 150.07798 35268 ft 493 kts 30°
2026-05-08 01:39 -31.92661 150.12455 35252 ft 493 kts 30°
2026-05-08 01:39 -31.87047 150.17110 35264 ft 492 kts 30°
2026-05-08 01:40 -31.81478 150.21723 35274 ft 492 kts 29°
2026-05-08 01:40 -31.75862 150.26365 35246 ft 491 kts 29°
2026-05-08 01:41 -31.70288 150.30955 35272 ft 490 kts 28°
2026-05-08 01:41 -31.64714 150.35545 35276 ft 489 kts 28°
2026-05-08 01:42 -31.59302 150.40453 35281 ft 494 kts 36°
2026-05-08 01:42 -31.54203 150.45829 35267 ft 493 kts 36°
2026-05-08 01:43 -31.49105 150.51178 35276 ft 493 kts 35°
2026-05-08 01:43 -31.44005 150.56507 35277 ft 493 kts 35°
2026-05-08 01:44 -31.38870 150.61883 35284 ft 493 kts 35°
2026-05-08 01:44 -31.33763 150.67212 35272 ft 493 kts 35°
2026-05-08 01:45 -31.28655 150.72536 35270 ft 493 kts 35°
2026-05-08 01:45 -31.23537 150.77879 35281 ft 494 kts 35°
2026-05-08 01:46 -31.18395 150.83224 35254 ft 494 kts 34°
2026-05-08 01:46 -31.13277 150.88534 35260 ft 494 kts 34°
2026-05-08 01:47 -31.08116 150.93879 35276 ft 495 kts 34°
2026-05-08 01:47 -31.02971 150.99210 35270 ft 495 kts 34°
2026-05-08 01:48 -30.95269 151.07167 35266 ft 495 kts 33°
2026-05-08 01:48 -30.90076 151.12525 35258 ft 496 kts 33°
2026-05-08 01:49 -30.84912 151.17843 35255 ft 497 kts 33°
2026-05-08 01:49 -30.79741 151.23152 35217 ft 497 kts 33°
2026-05-08 01:50 -30.74534 151.28490 35232 ft 497 kts 33°
2026-05-08 01:50 -30.69358 151.33802 35238 ft 498 kts 32°
2026-05-08 01:51 -30.64186 151.39108 35233 ft 498 kts 32°
2026-05-08 01:51 -30.58966 151.44440 35196 ft 498 kts 31°
2026-05-08 01:52 -30.53784 151.49727 35204 ft 498 kts 32°
2026-05-08 01:52 -30.48581 151.55026 35210 ft 497 kts 31°
2026-05-08 01:53 -30.43363 151.60329 35200 ft 497 kts 31°
2026-05-08 01:53 -30.38220 151.65647 35165 ft 500 kts 33°
2026-05-08 01:54 -30.33309 151.71399 35170 ft 506 kts 37°
2026-05-08 01:54 -30.28500 151.77408 35182 ft 507 kts 37°
2026-05-08 01:55 -30.23661 151.83329 35175 ft 505 kts 36°
2026-05-08 01:55 -30.18786 151.89127 35176 ft 505 kts 36°
2026-05-08 01:56 -30.13882 151.94918 35176 ft 504 kts 36°
2026-05-08 01:56 -30.08988 152.00711 35164 ft 505 kts 36°
2026-05-08 01:57 -30.04078 152.06542 35154 ft 505 kts 36°
2026-05-08 01:57 -29.99185 152.12352 35118 ft 505 kts 36°
2026-05-08 01:58 -29.94292 152.18134 35130 ft 505 kts 35°
2026-05-08 01:58 -29.89399 152.23902 35135 ft 505 kts 35°
2026-05-08 01:59 -29.84473 152.29716 35134 ft 505 kts 36°
2026-05-08 01:59 -29.79570 152.35502 35087 ft 506 kts 35°
2026-05-08 02:00 -29.74657 152.41267 35115 ft 506 kts 33°
2026-05-08 02:00 -29.69732 152.47032 35121 ft 506 kts 35°
2026-05-08 02:01 -29.64804 152.52819 35141 ft 507 kts 34°
2026-05-08 02:01 -29.59865 152.58620 35102 ft 507 kts 34°
2026-05-08 02:02 -29.54919 152.64404 35102 ft 506 kts 34°
2026-05-08 02:02 -29.49985 152.70140 35126 ft 507 kts 34°
2026-05-08 02:03 -29.45029 152.75906 35143 ft 507 kts 34°
2026-05-08 02:03 -29.40076 152.81663 34731 ft 505 kts 34°
2026-05-08 02:04 -29.37609 152.84526 33607 ft 513 kts 34°
2026-05-08 02:04 -29.35090 152.87446 32620 ft 512 kts 35°
2026-05-08 02:04 -29.32594 152.90352 31605 ft 508 kts 36°
2026-05-08 02:04 -29.30106 152.93249 30619 ft 508 kts 37°
2026-05-08 02:05 -29.27642 152.96110 29356 ft 509 kts 38°
2026-05-08 02:05 -29.25149 152.99003 28441 ft 506 kts 38°
2026-05-08 02:05 -29.22723 153.01816 27867 ft 498 kts 38°
2026-05-08 02:05 -29.20298 153.04623 27130 ft 493 kts 38°
2026-05-08 02:06 -29.17888 153.07405 26436 ft 489 kts 39°
2026-05-08 02:06 -29.15508 153.10153 25760 ft 484 kts 39°
2026-05-08 02:06 -29.13143 153.12880 25071 ft 480 kts 39°
2026-05-08 02:06 -29.10792 153.15585 24394 ft 476 kts 39°
2026-05-08 02:07 -29.08487 153.18236 23728 ft 472 kts 40°
2026-05-08 02:07 -29.06179 153.20894 22987 ft 468 kts 40°
2026-05-08 02:07 -29.03902 153.23516 22366 ft 460 kts 40°
2026-05-08 02:07 -29.01657 153.26098 21737 ft 453 kts 40°
2026-05-08 02:08 -28.99468 153.28614 21149 ft 446 kts 41°
2026-05-08 02:08 -28.97287 153.31118 20565 ft 440 kts 41°
2026-05-08 02:08 -28.95162 153.33554 20031 ft 434 kts 41°
2026-05-08 02:08 -28.93042 153.35983 19491 ft 428 kts 41°
2026-05-08 02:09 -28.90949 153.38380 18953 ft 422 kts 41°
2026-05-08 02:09 -28.88882 153.40745 18389 ft 418 kts 42°
2026-05-08 02:09 -28.86838 153.43082 17801 ft 413 kts 42°
2026-05-08 02:09 -28.84768 153.45264 17292 ft 404 kts 34°
2026-05-08 02:10 -28.82414 153.47024 16764 ft 403 kts 24°
2026-05-08 02:10 -28.79858 153.48302 16225 ft 399 kts 16°
2026-05-08 02:10 -28.77273 153.49440 15682 ft 397 kts 17°
2026-05-08 02:10 -28.74734 153.50563 15135 ft 394 kts 17°
2026-05-08 02:11 -28.72178 153.51702 14586 ft 392 kts 17°
2026-05-08 02:11 -28.69637 153.52833 14031 ft 389 kts 17°
2026-05-08 02:11 -28.67125 153.53951 13428 ft 386 kts 18°
2026-05-08 02:11 -28.64656 153.55049 12871 ft 384 kts 18°
2026-05-08 02:12 -28.62161 153.56156 12312 ft 381 kts 18°
2026-05-08 02:12 -28.59694 153.57248 11756 ft 378 kts 18°
2026-05-08 02:12 -28.57248 153.58331 11200 ft 376 kts 18°
2026-05-08 02:12 -28.54854 153.59392 10741 ft 369 kts 18°
2026-05-08 02:13 -28.52510 153.60434 10618 ft 351 kts 18°
2026-05-08 02:13 -28.50264 153.61367 10491 ft 335 kts 16°
2026-05-08 02:13 -28.48124 153.62188 10349 ft 321 kts 15°
2026-05-08 02:13 -28.46020 153.62961 10102 ft 313 kts 14°
2026-05-08 02:14 -28.43950 153.63711 10020 ft 312 kts 14°
2026-05-08 02:14 -28.41870 153.64465 9666 ft 315 kts 15°
2026-05-08 02:14 -28.39801 153.65226 9162 ft 310 kts 15°
2026-05-08 02:14 -28.37752 153.65983 8694 ft 308 kts 15°
2026-05-08 02:15 -28.35707 153.66730 8233 ft 308 kts 15°
2026-05-08 02:15 -28.33690 153.67459 7773 ft 305 kts 15°
2026-05-08 02:15 -28.31673 153.68186 7320 ft 301 kts 15°
2026-05-08 02:15 -28.29638 153.68711 6866 ft 298 kts
2026-05-08 02:16 -28.27606 153.68615 6418 ft 293 kts 346°
2026-05-08 02:16 -28.25687 153.67928 5960 ft 284 kts 331°
2026-05-08 02:16 -28.23922 153.66944 5540 ft 280 kts 331°
2026-05-08 02:16 -28.22197 153.65988 5128 ft 279 kts 331°
2026-05-08 02:17 -28.20496 153.65050 4991 ft 258 kts 331°
2026-05-08 02:17 -28.18957 153.64206 4913 ft 236 kts 331°
2026-05-08 02:17 -28.17511 153.63410 4834 ft 224 kts 331°
2026-05-08 02:17 -28.16164 153.62667 4730 ft 205 kts 330°
2026-05-08 02:18 -28.14977 153.61895 4626 ft 196 kts 320°
2026-05-08 02:18 -28.13920 153.60924 4360 ft 193 kts 318°
2026-05-08 02:18 -28.13229 153.60288 4199 ft 192 kts 318°
2026-05-08 02:18 -28.12188 153.59335 3937 ft 192 kts 318°
2026-05-08 02:19 -28.10833 153.58097 3619 ft 183 kts 318°
2026-05-08 02:19 -28.10184 153.57504 3481 ft 178 kts 319°
2026-05-08 02:19 -28.08939 153.56341 3185 ft 170 kts 313°
2026-05-08 02:19 -28.08408 153.55684 3033 ft 168 kts 306°
2026-05-08 02:20 -28.07622 153.54201 2748 ft 163 kts 290°
2026-05-08 02:20 -28.07368 153.53401 2595 ft 161 kts 282°
2026-05-08 02:20 -28.07173 153.52207 2395 ft 146 kts 273°
2026-05-08 02:20 -28.07171 153.51097 2190 ft 140 kts 263°
2026-05-08 02:21 -28.07330 153.50000 2007 ft 139 kts 254°
2026-05-08 02:21 -28.07702 153.49015 1819 ft 138 kts 236°
2026-05-08 02:21 -28.08324 153.48188 1640 ft 137 kts 219°
2026-05-08 02:21 -28.09110 153.47617 1451 ft 137 kts 204°
2026-05-08 02:22 -28.10015 153.47320 1274 ft 136 kts 187°
2026-05-08 02:22 -28.10964 153.47333 1089 ft 136 kts 170°
2026-05-08 02:22 -28.11866 153.47663 905 ft 136 kts 154°
2026-05-08 02:22 -28.12682 153.48185 739 ft 135 kts 152°
2026-05-08 02:23 -28.13501 153.48711 522 ft 135 kts 152°
2026-05-08 02:23 -28.14325 153.49226 374 ft 135 kts 153°
2026-05-08 02:23 -28.15140 153.49750 180 ft 135 kts 154°
2026-05-08 02:23 -28.15946 153.50262 29 ft 128 kts 153°
2026-05-08 02:24 -28.16599 153.50674 28 ft 84 kts 150°
2026-05-08 02:24 -28.16899 153.50865 29 ft 22 kts 151°
2026-05-08 02:24 -28.16934 153.50976 27 ft 18 kts 61°
2026-05-08 02:24 -28.16884 153.51077 29 ft 12 kts 62°
2026-05-08 02:25 -28.16836 153.51135 27 ft 11 kts 12°
2026-05-08 02:25 -28.16780 153.51110 29 ft 2 kts 331°
2026-05-08 02:25 -28.16779 153.51110 29 ft 0 kts 331°
2026-05-08 02:26 -28.16775 153.51107 29 ft 3 kts 331°
2026-05-08 02:26 -28.16737 153.51083 26 ft 8 kts 331°
2026-05-08 02:26 -28.16680 153.51047 30 ft 11 kts 330°
2026-05-08 02:26 -28.16635 153.51024 28 ft 4 kts
2026-05-08 02:27 -28.16614 153.51054 30 ft 7 kts 60°
2026-05-08 02:27 -28.16591 153.51100 27 ft 4 kts 60°
2026-05-08 02:27 -28.16581 153.51121 28 ft 1 kts 60°
2026-05-08 02:27 -28.16580 153.51123 28 ft 0 kts 60°
2026-05-08 02:29 -28.16580 153.51122 28 ft 0 kts 60°
2026-05-08 02:30 -28.16580 153.51123 28 ft 0 kts 60°